| time (UTC) | temp F | wind direction | speed MPH | gust MPH | rain 1hr in | rain 24hr in | rain mn in | humidity % | barometer mb |
| 20260504050503 | 40 | 109 | 0.0 | 0.0 | 0.00 | 0.00 | 0.00 | 88 | 1015.0 |
| 20260504050006 | 41 | 109 | 0.0 | 0.0 | 0.00 | 0.00 | 0.00 | 89 | 1015.0 |
| 20260504045503 | 40 | 109 | 0.0 | 0.0 | 0.00 | 0.00 | 0.00 | 89 | 1015.0 |
| 20260504045005 | 40 | 109 | 0.0 | 0.0 | 0.00 | 0.00 | 0.00 | 89 | 1015.0 |
| 20260504044513 | 40 | 109 | 0.0 | 0.0 | 0.00 | 0.00 | 0.00 | 88 | 1015.1 |
| 20260504044006 | 40 | 109 | 0.0 | 0.0 | 0.00 | 0.00 | 0.00 | 88 | 1015.0 |
| 20260504043504 | 40 | 109 | 0.0 | 0.0 | 0.00 | 0.00 | 0.00 | 88 | 1015.0 |
| 20260504043013 | 40 | 109 | 0.0 | 0.0 | 0.00 | 0.00 | 0.00 | 88 | 1014.9 |
| 20260504042504 | 40 | 109 | 0.0 | 0.0 | 0.00 | 0.00 | 0.00 | 88 | 1014.8 |
| 20260504042004 | 40 | 109 | 0.0 | 0.0 | 0.00 | 0.00 | 0.00 | 87 | 1014.7 |
| 20260504041511 | 40 | 109 | 0.0 | 0.0 | 0.00 | 0.00 | 0.00 | 87 | 1014.7 |
| 20260504041003 | 40 | 109 | 0.0 | 0.0 | 0.00 | 0.00 | 0.00 | 87 | 1014.9 |
| 20260504040503 | 40 | 109 | 0.0 | 0.0 | 0.00 | 0.00 | 0.00 | 86 | 1014.8 |
| 20260504040006 | 40 | 109 | 0.0 | 0.0 | 0.00 | 0.00 | 0.00 | 86 | 1014.6 |
| 20260504035503 | 40 | 109 | 0.0 | 0.0 | 0.00 | 0.00 | 0.00 | 87 | 1014.7 |
| 20260504035003 | 40 | 109 | 0.0 | 0.0 | 0.00 | 0.00 | 0.00 | 86 | 1014.7 |
| 20260504034510 | 40 | 109 | 0.0 | 0.0 | 0.00 | 0.00 | 0.00 | 86 | 1014.6 |
| 20260504034004 | 40 | 109 | 0.0 | 0.0 | 0.00 | 0.00 | 0.00 | 86 | 1014.7 |
| 20260504033504 | 40 | 109 | 0.0 | 0.0 | 0.00 | 0.00 | 0.00 | 86 | 1014.6 |
| 20260504033015 | 41 | 109 | 0.0 | 0.0 | 0.00 | 0.00 | 0.00 | 85 | 1014.6 |
| 20260504032504 | 41 | 109 | 0.0 | 0.0 | 0.00 | 0.00 | 0.00 | 84 | 1014.5 |
| 20260504032004 | 41 | 109 | 0.0 | 0.0 | 0.00 | 0.00 | 0.00 | 85 | 1014.5 |
| 20260504031515 | 41 | 109 | 0.0 | 0.0 | 0.00 | 0.00 | 0.00 | 84 | 1014.6 |
| 20260504031003 | 41 | 109 | 0.0 | 0.0 | 0.00 | 0.00 | 0.00 | 84 | 1014.5 |
| 20260504030504 | 41 | 109 | 0.0 | 0.0 | 0.00 | 0.00 | 0.00 | 84 | 1014.5 |
| 20260504030014 | 41 | 109 | 0.0 | 0.0 | 0.00 | 0.00 | 0.00 | 84 | 1014.5 |
| 20260504025504 | 42 | 109 | 0.0 | 0.0 | 0.00 | 0.00 | 0.00 | 82 | 1014.5 |
| 20260504025006 | 42 | 109 | 0.0 | 0.0 | 0.00 | 0.00 | 0.00 | 82 | 1014.4 |
| 20260504024506 | 42 | 109 | 0.0 | 0.0 | 0.00 | 0.00 | 0.00 | 82 | 1014.3 |
| 20260504024003 | 42 | 109 | 0.0 | 0.0 | 0.00 | 0.00 | 0.00 | 81 | 1014.3 |
| 20260504023504 | 42 | 109 | 0.0 | 0.0 | 0.00 | 0.00 | 0.00 | 80 | 1014.3 |
| 20260504023010 | 43 | 109 | 0.0 | 0.0 | 0.00 | 0.00 | 0.00 | 78 | 1014.2 |
| 20260504022508 | 43 | 109 | 0.0 | 0.0 | 0.00 | 0.00 | 0.00 | 78 | 1014.2 |
| 20260504022004 | 43 | 109 | 0.0 | 0.0 | 0.00 | 0.00 | 0.00 | 79 | 1014.3 |
| 20260504021513 | 43 | 109 | 0.0 | 0.0 | 0.00 | 0.00 | 0.00 | 76 | 1014.3 |
| 20260504021007 | 43 | 109 | 0.0 | 0.0 | 0.00 | 0.00 | 0.00 | 78 | 1014.3 |
| 20260504020504 | 43 | 109 | 0.0 | 0.0 | 0.00 | 0.00 | 0.00 | 77 | 1014.3 |
| 20260504020020 | 43 | 109 | 0.0 | 0.0 | 0.00 | 0.00 | 0.00 | 77 | 1014.3 |
| 20260504015507 | 44 | 109 | 0.0 | 0.0 | 0.00 | 0.00 | 0.00 | 75 | 1014.3 |
| 20260504015004 | 44 | 109 | 0.0 | 0.0 | 0.00 | 0.00 | 0.00 | 75 | 1014.2 |
| 20260504014514 | 44 | 109 | 0.0 | 0.0 | 0.00 | 0.00 | 0.00 | 74 | 1014.2 |
| 20260504014003 | 44 | 109 | 0.0 | 0.0 | 0.00 | 0.00 | 0.00 | 74 | 1014.2 |
| 20260504013503 | 44 | 109 | 0.0 | 0.0 | 0.00 | 0.00 | 0.00 | 73 | 1014.2 |
| 20260504013008 | 45 | 109 | 0.0 | 0.0 | 0.00 | 0.00 | 0.00 | 72 | 1014.3 |
| 20260504012504 | 45 | 109 | 0.0 | 0.0 | 0.00 | 0.00 | 0.00 | 72 | 1014.3 |
| 20260504012005 | 45 | 109 | 0.0 | 2.0 | 0.00 | 0.00 | 0.00 | 74 | 1014.2 |
| 20260504011510 | 45 | 109 | 0.0 | 2.0 | 0.00 | 0.00 | 0.00 | 74 | 1014.2 |
| 20260504011007 | 46 | 109 | 0.0 | 2.0 | 0.00 | 0.00 | 0.00 | 72 | 1014.1 |
| 20260504010505 | 46 | 109 | 0.0 | 2.0 | 0.00 | 0.00 | 0.00 | 71 | 1014.1 |
| 20260504010014 | 46 | 109 | 0.0 | 0.0 | 0.00 | 0.00 | 0.00 | 72 | 1014.1 |
| 20260504005504 | 47 | 86 | 0.0 | 0.0 | 0.00 | 0.00 | 0.00 | 66 | 1014.0 |
| 20260504005004 | 46 | 86 | 0.0 | 0.0 | 0.00 | 0.00 | 0.00 | 68 | 1014.0 |
| 20260504004533 | 47 | 86 | 0.0 | 0.0 | 0.00 | 0.00 | 0.00 | 66 | 1014.0 |
| 20260504004006 | 48 | 86 | 0.0 | 0.0 | 0.00 | 0.00 | 0.00 | 65 | 1013.9 |
| 20260504003505 | 48 | 85 | 0.0 | 1.0 | 0.00 | 0.00 | 0.00 | 62 | 1013.9 |
| 20260504003017 | 47 | 85 | 0.0 | 2.0 | 0.00 | 0.00 | 0.00 | 65 | 1013.8 |
| 20260504002504 | 48 | 85 | 0.0 | 2.0 | 0.00 | 0.00 | 0.00 | 63 | 1013.7 |
| 20260504002005 | 49 | 92 | 0.0 | 2.0 | 0.00 | 0.00 | 0.00 | 61 | 1013.6 |
| 20260504001526 | 50 | 92 | 0.0 | 0.0 | 0.00 | 0.00 | 0.00 | 59 | 1013.6 |
| 20260504001005 | 50 | 92 | 0.0 | 2.0 | 0.00 | 0.00 | 0.00 | 60 | 1013.6 |
| 20260504000504 | 51 | 92 | 0.0 | 2.0 | 0.00 | 0.00 | 0.00 | 55 | 1013.5 |
| 20260504000012 | 51 | 92 | 0.0 | 2.0 | 0.00 | 0.00 | 0.00 | 54 | 1013.4 |
| 20260503235504 | 52 | 92 | 0.0 | 2.0 | 0.00 | 0.00 | 0.00 | 54 | 1013.3 |
| 20260503235006 | 52 | 92 | 0.0 | 2.0 | 0.00 | 0.00 | 0.00 | 54 | 1013.3 |
| 20260503234520 | 53 | 92 | 0.0 | 2.0 | 0.00 | 0.00 | 0.00 | 53 | 1013.2 |
| 20260503234007 | 54 | 92 | 0.0 | 2.0 | 0.00 | 0.00 | 0.00 | 51 | 1013.2 |
| 20260503233509 | 54 | 119 | 0.0 | 2.0 | 0.00 | 0.00 | 0.00 | 49 | 1013.2 |
| 20260503233018 | 55 | 323 | 0.0 | 2.0 | 0.00 | 0.00 | 0.00 | 47 | 1013.2 |
| 20260503232508 | 57 | 323 | 0.0 | 2.0 | 0.00 | 0.00 | 0.00 | 41 | 1013.1 |
| 20260503232007 | 58 | 193 | 0.0 | 3.0 | 0.00 | 0.00 | 0.00 | 36 | 1013.1 |
| 20260503231522 | 59 | 292 | 1.0 | 4.0 | 0.00 | 0.00 | 0.00 | 33 | 1013.2 |
| 20260503231004 | 59 | 314 | 1.0 | 4.0 | 0.00 | 0.00 | 0.00 | 33 | 1013.2 |
| 20260503230506 | 59 | 5 | 2.0 | 4.0 | 0.00 | 0.00 | 0.00 | 33 | 1013.1 |
| 20260503230011 | 60 | 333 | 1.0 | 4.0 | 0.00 | 0.00 | 0.00 | 33 | 1013.2 |
| 20260503225508 | 60 | 250 | 1.0 | 4.0 | 0.00 | 0.00 | 0.00 | 33 | 1013.3 |
| 20260503225003 | 60 | 140 | 1.0 | 4.0 | 0.00 | 0.00 | 0.00 | 34 | 1013.3 |
| 20260503224518 | 60 | 44 | 0.0 | 4.0 | 0.00 | 0.00 | 0.00 | 34 | 1013.2 |
| 20260503224005 | 61 | 275 | 2.0 | 8.0 | 0.00 | 0.00 | 0.00 | 33 | 1013.2 |
| 20260503223508 | 61 | 146 | 1.0 | 8.0 | 0.00 | 0.00 | 0.00 | 31 | 1013.2 |
| 20260503223020 | 61 | 29 | 2.0 | 8.0 | 0.00 | 0.00 | 0.00 | 33 | 1013.1 |
| 20260503222505 | 61 | 13 | 1.0 | 9.0 | 0.00 | 0.00 | 0.00 | 32 | 1013.2 |
| 20260503222007 | 61 | 350 | 5.0 | 9.0 | 0.00 | 0.00 | 0.00 | 32 | 1013.2 |
| 20260503221517 | 61 | 298 | 3.0 | 7.0 | 0.00 | 0.00 | 0.00 | 31 | 1013.2 |
| 20260503221006 | 61 | 22 | 2.0 | 8.0 | 0.00 | 0.00 | 0.00 | 32 | 1013.2 |
| 20260503220510 | 61 | 65 | 4.0 | 9.0 | 0.00 | 0.00 | 0.00 | 32 | 1013.3 |
| 20260503220020 | 61 | 351 | 3.0 | 11.0 | 0.00 | 0.00 | 0.00 | 31 | 1013.3 |
| 20260503215504 | 61 | 269 | 4.0 | 11.0 | 0.00 | 0.00 | 0.00 | 32 | 1013.3 |
| 20260503215003 | 61 | 55 | 1.0 | 8.0 | 0.00 | 0.00 | 0.00 | 31 | 1013.2 |
| 20260503214528 | 61 | 332 | 2.0 | 10.0 | 0.00 | 0.00 | 0.00 | 33 | 1013.2 |
| 20260503214003 | 61 | 26 | 2.0 | 10.0 | 0.00 | 0.00 | 0.00 | 33 | 1013.1 |
| 20260503213507 | 61 | 287 | 2.0 | 7.0 | 0.00 | 0.00 | 0.00 | 32 | 1013.2 |
| 20260503213029 | 61 | 227 | 2.0 | 9.0 | 0.00 | 0.00 | 0.00 | 32 | 1013.1 |
| 20260503212508 | 61 | 348 | 3.0 | 9.0 | 0.00 | 0.00 | 0.00 | 31 | 1013.1 |
| 20260503212008 | 61 | 180 | 4.0 | 11.0 | 0.00 | 0.00 | 0.00 | 32 | 1013.1 |
| 20260503211522 | 61 | 173 | 4.0 | 11.0 | 0.00 | 0.00 | 0.00 | 32 | 1013.0 |
| 20260503211010 | 61 | 336 | 2.0 | 12.0 | 0.00 | 0.00 | 0.00 | 32 | 1013.0 |
| 20260503210510 | 61 | 329 | 4.0 | 12.0 | 0.00 | 0.00 | 0.00 | 32 | 1013.0 |
| 20260503210021 | 61 | 136 | 6.0 | 10.0 | 0.00 | 0.00 | 0.00 | 30 | 1013.1 |
| 20260503205509 | 61 | 47 | 4.0 | 16.0 | 0.00 | 0.00 | 0.00 | 35 | 1013.1 |
| 20260503205005 | 61 | 32 | 7.0 | 14.0 | 0.00 | 0.00 | 0.00 | 31 | 1013.1 |
| 20260503204522 | 61 | 325 | 6.0 | 14.0 | 0.00 | 0.00 | 0.00 | 30 | 1013.0 |
| 20260503204007 | 62 | 327 | 3.0 | 14.0 | 0.00 | 0.00 | 0.00 | 34 | 1013.1 |
| 20260503203508 | 61 | 29 | 3.0 | 12.0 | 0.00 | 0.00 | 0.00 | 34 | 1013.2 |
| 20260503203016 | 61 | 331 | 6.0 | 11.0 | 0.00 | 0.00 | 0.00 | 31 | 1013.2 |
| 20260503202511 | 61 | 315 | 3.0 | 13.0 | 0.00 | 0.00 | 0.00 | 34 | 1013.2 |
| 20260503202010 | 61 | 23 | 4.0 | 14.0 | 0.00 | 0.00 | 0.00 | 32 | 1013.4 |
| 20260503201522 | 60 | 35 | 4.0 | 14.0 | 0.00 | 0.00 | 0.00 | 35 | 1013.3 |
| 20260503201009 | 61 | 245 | 4.0 | 12.0 | 0.00 | 0.00 | 0.00 | 34 | 1013.4 |
| 20260503200507 | 60 | 360 | 6.0 | 12.0 | 0.00 | 0.00 | 0.00 | 33 | 1013.5 |
| 20260503200024 | 60 | 19 | 3.0 | 12.0 | 0.00 | 0.00 | 0.00 | 33 | 1013.6 |
| 20260503195508 | 61 | 352 | 3.0 | 11.0 | 0.00 | 0.00 | 0.00 | 34 | 1013.5 |
| 20260503195006 | 61 | 204 | 4.0 | 9.0 | 0.00 | 0.00 | 0.00 | 33 | 1013.6 |
| 20260503194524 | 61 | 190 | 3.0 | 9.0 | 0.00 | 0.00 | 0.00 | 33 | 1013.8 |
| 20260503194009 | 60 | 88 | 2.0 | 10.0 | 0.00 | 0.00 | 0.00 | 34 | 1013.9 |
| 20260503193504 | 60 | 292 | 5.0 | 10.0 | 0.00 | 0.00 | 0.00 | 35 | 1014.1 |
| 20260503193016 | 61 | 186 | 4.0 | 10.0 | 0.00 | 0.00 | 0.00 | 33 | 1014.1 |
| 20260503192504 | 61 | 36 | 6.0 | 10.0 | 0.00 | 0.00 | 0.00 | 34 | 1014.2 |
| 20260503192012 | 61 | 345 | 4.0 | 11.0 | 0.00 | 0.00 | 0.00 | 34 | 1014.2 |
| 20260503191522 | 61 | 26 | 4.0 | 18.0 | 0.00 | 0.00 | 0.00 | 34 | 1014.1 |
| 20260503191007 | 60 | 34 | 4.0 | 18.0 | 0.00 | 0.00 | 0.00 | 35 | 1014.2 |
| 20260503190507 | 61 | 277 | 7.0 | 16.0 | 0.00 | 0.00 | 0.00 | 32 | 1014.2 |
| 20260503190036 | 60 | 315 | 4.0 | 8.0 | 0.00 | 0.00 | 0.00 | 33 | 1014.1 |
| 20260503185504 | 60 | 278 | 3.0 | 11.0 | 0.00 | 0.00 | 0.00 | 34 | 1014.3 |
| 20260503185004 | 60 | 324 | 6.0 | 11.0 | 0.00 | 0.00 | 0.00 | 36 | 1014.3 |
| 20260503184512 | 59 | 311 | 5.0 | 11.0 | 0.00 | 0.00 | 0.00 | 32 | 1014.3 |
| 20260503184003 | 60 | 14 | 4.0 | 11.0 | 0.00 | 0.00 | 0.00 | 34 | 1014.3 |
| 20260503183506 | 60 | 338 | 4.0 | 13.0 | 0.00 | 0.00 | 0.00 | 35 | 1014.3 |
| 20260503183012 | 60 | 308 | 6.0 | 13.0 | 0.00 | 0.00 | 0.00 | 34 | 1014.3 |
| 20260503182505 | 60 | 305 | 4.0 | 12.0 | 0.00 | 0.00 | 0.00 | 33 | 1014.4 |
| 20260503182007 | 61 | 271 | 6.0 | 14.0 | 0.00 | 0.00 | 0.00 | 32 | 1014.4 |
| 20260503181537 | 60 | 347 | 6.0 | 16.0 | 0.00 | 0.00 | 0.00 | 36 | 1014.5 |
| 20260503181008 | 60 | 28 | 4.0 | 16.0 | 0.00 | 0.00 | 0.00 | 33 | 1014.5 |
| 20260503180507 | 60 | 327 | 4.0 | 14.0 | 0.00 | 0.00 | 0.00 | 35 | 1014.5 |
| 20260503180037 | 59 | 360 | 4.0 | 12.0 | 0.00 | 0.00 | 0.00 | 33 | 1014.5 |
| 20260503175511 | 59 | 12 | 7.0 | 12.0 | 0.00 | 0.00 | 0.00 | 33 | 1014.7 |
| 20260503175008 | 58 | 317 | 3.0 | 12.0 | 0.00 | 0.00 | 0.00 | 32 | 1014.5 |
| 20260503174507 | 59 | 306 | 6.0 | 13.0 | 0.00 | 0.00 | 0.00 | 34 | 1014.9 |
| 20260503174004 | 59 | 298 | 6.0 | 13.0 | 0.00 | 0.00 | 0.00 | 35 | 1014.8 |
| 20260503173503 | 58 | 123 | 4.0 | 13.0 | 0.00 | 0.00 | 0.00 | 32 | 1014.7 |
| 20260503173009 | 58 | 25 | 4.0 | 13.0 | 0.00 | 0.00 | 0.00 | 34 | 1014.8 |
| 20260503172508 | 58 | 103 | 5.0 | 11.0 | 0.00 | 0.00 | 0.00 | 32 | 1014.9 |
| 20260503172006 | 57 | 329 | 4.0 | 14.0 | 0.00 | 0.00 | 0.00 | 35 | 1014.9 |
| 20260503171522 | 56 | 351 | 5.0 | 14.0 | 0.00 | 0.00 | 0.00 | 35 | 1014.8 |
| 20260503171007 | 57 | 345 | 5.0 | 15.0 | 0.00 | 0.00 | 0.00 | 38 | 1015.0 |
| 20260503170505 | 56 | 360 | 4.0 | 15.0 | 0.00 | 0.00 | 0.00 | 37 | 1014.9 |
| 20260503151005 | 53 | 336 | 6.0 | 15.0 | 0.00 | 0.00 | 0.00 | 42 | 1015.4 |
| 20260503150506 | 54 | 35 | 7.0 | 15.0 | 0.00 | 0.00 | 0.00 | 43 | 1015.4 |
| 20260503131011 | 48 | 297 | 4.0 | 15.0 | 0.00 | 0.00 | 0.00 | 52 | 1015.5 |
| 20260503130510 | 48 | 19 | 4.0 | 13.0 | 0.00 | 0.00 | 0.00 | 54 | 1015.4 |
| 20260503110514 | 43 | 300 | 3.0 | 10.0 | 0.00 | 0.00 | 0.00 | 63 | 1014.2 |
| 20260503090509 | 43 | 282 | 2.0 | 5.0 | 0.00 | 0.00 | 0.00 | 66 | 1012.7 |
| 20260503081518 | 44 | 27 | 2.0 | 5.0 | 0.00 | 0.00 | 0.00 | 67 | 1012.4 |
| 20260503081011 | 44 | 5 | 2.0 | 5.0 | 0.00 | 0.00 | 0.00 | 67 | 1012.4 |
| 20260503080507 | 44 | 26 | 2.0 | 8.0 | 0.00 | 0.00 | 0.00 | 66 | 1012.3 |